Terminal Aerodrome Forecast
Issued by NWS

Home | Current Version | Previous Version | Text Only | Print | Product List | Glossary Off
Versions: 1 2 3 4 5 6 7 8 9 10 11 12 13 14 15 16

000
FTUS45 KGGW 290300 AAA
TAFSDY
TAF AMD
KSDY 290349Z 2904/2924 08010KT P6SM VCSH OVC010
     FM291200 09010KT 6SM -SHRA SCT006 OVC009
      AMD LTD TO CLD VIS AND WIND=

USA.gov is the U.S. government's official web portal to all federal, state and local government web resources and services.